| time (UTC) | temp F | wind direction | speed knots | gust knots | rain 1hr in | rain 24hr in | rain mn in | humidity % | barometer mb |
| 20260901065905 | 51 | 197 | 7.8 | 17.4 | 0.00 | 0.02 | 0.00 | 75 | 1014.5 |
| 20260901065405 | 51 | 266 | 6.1 | 14.8 | 0.00 | 0.02 | 0.00 | 75 | 1014.4 |
| 20260901064905 | 51 | 203 | 6.1 | 17.4 | 0.00 | 0.02 | 0.00 | 75 | 1014.4 |
| 20260901064405 | 51 | 210 | 6.1 | 11.3 | 0.00 | 0.02 | 0.00 | 75 | 1014.4 |
| 20260901063904 | 51 | 280 | 4.3 | 13.0 | 0.00 | 0.02 | 0.00 | 75 | 1014.4 |
| 20260901063405 | 51 | 251 | 7.0 | 12.2 | 0.00 | 0.02 | 0.00 | 75 | 1014.3 |
| 20260901062909 | 51 | 206 | 5.2 | 21.7 | 0.00 | 0.02 | 0.00 | 74 | 1014.2 |
| 20260901062406 | 51 | 215 | 5.2 | 12.2 | 0.00 | 0.02 | 0.00 | 75 | 1014.2 |
| 20260901061405 | 51 | 220 | 4.3 | 13.9 | 0.00 | 0.02 | 0.00 | 74 | 1014.2 |
| 20260901060905 | 51 | 269 | 7.0 | 14.8 | 0.00 | 0.02 | 0.00 | 74 | 1014.2 |
| 20260901055905 | 51 | 214 | 7.8 | 13.0 | 0.00 | 0.02 | 0.00 | 74 | 1014.1 |
| 20260901055405 | 51 | 231 | 5.2 | 13.0 | 0.00 | 0.02 | 0.00 | 74 | 1014.1 |
| 20260901054905 | 52 | 254 | 7.0 | 13.9 | 0.00 | 0.02 | 0.00 | 74 | 1014.0 |
| 20260901054405 | 52 | 327 | 5.2 | 12.2 | 0.00 | 0.02 | 0.00 | 74 | 1013.9 |
| 20260901053405 | 53 | 220 | 5.2 | 15.6 | 0.00 | 0.02 | 0.00 | 73 | 1013.9 |
| 20260901052405 | 53 | 199 | 8.7 | 17.4 | 0.00 | 0.02 | 0.00 | 72 | 1013.7 |
| 20260901051905 | 53 | 258 | 6.1 | 14.8 | 0.00 | 0.02 | 0.00 | 71 | 1013.7 |
| 20260901051405 | 54 | 352 | 6.1 | 20.9 | 0.00 | 0.02 | 0.00 | 71 | 1013.6 |
| 20260901050405 | 54 | 296 | 6.1 | 15.6 | 0.00 | 0.02 | 0.00 | 70 | 1013.8 |
| 20260901045905 | 55 | 230 | 7.8 | 19.1 | 0.00 | 0.02 | 0.00 | 69 | 1013.7 |
| 20260901045405 | 55 | 275 | 5.2 | 13.9 | 0.00 | 0.02 | 0.00 | 69 | 1013.6 |
| 20260901044905 | 55 | 247 | 6.1 | 17.4 | 0.00 | 0.02 | 0.00 | 68 | 1013.5 |
| 20260901043905 | 55 | 225 | 7.8 | 17.4 | 0.00 | 0.02 | 0.00 | 69 | 1013.5 |
| 20260901043405 | 55 | 254 | 6.1 | 17.4 | 0.00 | 0.02 | 0.00 | 70 | 1013.6 |
| 20260901042904 | 55 | 213 | 8.7 | 17.4 | 0.00 | 0.02 | 0.00 | 69 | 1013.5 |
| 20260901042405 | 56 | 250 | 7.0 | 15.6 | 0.00 | 0.02 | 0.00 | 69 | 1013.4 |
| 20260901041905 | 56 | 276 | 6.1 | 17.4 | 0.00 | 0.02 | 0.00 | 69 | 1013.3 |
| 20260901041405 | 56 | 246 | 6.1 | 17.4 | 0.00 | 0.02 | 0.00 | 68 | 1013.3 |
| 20260901040905 | 56 | 247 | 5.2 | 20.0 | 0.00 | 0.02 | 0.00 | 69 | 1013.2 |
| 20260901040405 | 56 | 222 | 6.1 | 17.4 | 0.00 | 0.02 | 0.00 | 69 | 1013.2 |
| 20260901035405 | 57 | 197 | 5.2 | 15.6 | 0.00 | 0.02 | 0.00 | 69 | 1013.0 |
| 20260901034905 | 56 | 238 | 7.0 | 15.6 | 0.00 | 0.02 | 0.00 | 69 | 1013.2 |
| 20260901034405 | 55 | 219 | 5.2 | 17.4 | 0.00 | 0.02 | 0.00 | 70 | 1013.1 |
| 20260901033905 | 55 | 343 | 7.8 | 15.6 | 0.00 | 0.02 | 0.00 | 71 | 1013.1 |
| 20260901033405 | 53 | 222 | 7.8 | 18.2 | 0.00 | 0.02 | 0.00 | 71 | 1013.2 |
| 20260901032905 | 53 | 260 | 8.7 | 18.2 | 0.00 | 0.02 | 0.00 | 71 | 1013.2 |
| 20260901032404 | 54 | 219 | 8.7 | 19.1 | 0.00 | 0.02 | 0.00 | 70 | 1013.3 |
| 20260901031905 | 55 | 216 | 12.2 | 27.8 | 0.00 | 0.02 | 0.00 | 69 | 1013.1 |
| 20260901031405 | 55 | 239 | 11.3 | 25.2 | 0.00 | 0.02 | 0.00 | 69 | 1013.1 |
| 20260901030905 | 55 | 222 | 10.4 | 24.3 | 0.00 | 0.02 | 0.00 | 67 | 1013.0 |
| 20260901025905 | 55 | 203 | 10.4 | 20.9 | 0.00 | 0.02 | 0.00 | 66 | 1013.1 |
| 20260901024905 | 57 | 331 | 8.7 | 15.6 | 0.00 | 0.02 | 0.00 | 65 | 1012.9 |
| 20260901024405 | 57 | 223 | 7.8 | 15.6 | 0.00 | 0.02 | 0.00 | 66 | 1012.7 |
| 20260901023905 | 56 | 201 | 7.8 | 17.4 | 0.00 | 0.02 | 0.00 | 68 | 1012.7 |
| 20260901022405 | 56 | 293 | 9.6 | 20.0 | 0.00 | 0.02 | 0.00 | 66 | 1012.6 |
| 20260901021905 | 56 | 202 | 7.8 | 18.2 | 0.00 | 0.02 | 0.00 | 68 | 1012.6 |
| 20260901021405 | 56 | 304 | 10.4 | 20.0 | 0.00 | 0.02 | 0.00 | 67 | 1012.5 |
| 20260901020905 | 56 | 232 | 11.3 | 21.7 | 0.00 | 0.02 | 0.00 | 66 | 1012.7 |
| 20260901015905 | 57 | 291 | 5.2 | 15.6 | 0.00 | 0.02 | 0.00 | 68 | 1012.7 |
| 20260901015405 | 56 | 235 | 8.7 | 20.0 | 0.00 | 0.02 | 0.00 | 68 | 1012.8 |
| 20260901014905 | 56 | 309 | 7.8 | 19.1 | 0.00 | 0.02 | 0.00 | 67 | 1012.7 |
| 20260901014404 | 56 | 266 | 8.7 | 19.1 | 0.00 | 0.02 | 0.00 | 65 | 1012.7 |
| 20260901013904 | 57 | 229 | 8.7 | 18.2 | 0.00 | 0.02 | 0.00 | 65 | 1012.7 |
| 20260901013404 | 57 | 209 | 7.8 | 17.4 | 0.00 | 0.02 | 0.00 | 65 | 1012.7 |
| 20260901012905 | 57 | 230 | 8.7 | 25.2 | 0.00 | 0.02 | 0.00 | 66 | 1012.7 |
| 20260901012405 | 57 | 213 | 10.4 | 20.0 | 0.00 | 0.02 | 0.00 | 65 | 1012.5 |
| 20260901011405 | 57 | 283 | 9.6 | 18.2 | 0.00 | 0.02 | 0.00 | 66 | 1012.7 |
| 20260901010905 | 57 | 235 | 9.6 | 19.1 | 0.00 | 0.02 | 0.00 | 65 | 1012.7 |
| 20260901010404 | 56 | 252 | 9.6 | 27.8 | 0.00 | 0.02 | 0.00 | 65 | 1012.8 |
| 20260901005905 | 56 | 248 | 7.8 | 18.2 | 0.00 | 0.02 | 0.00 | 66 | 1012.8 |
| 20260901005405 | 56 | 213 | 10.4 | 19.1 | 0.00 | 0.02 | 0.00 | 66 | 1012.9 |
| 20260901004905 | 56 | 204 | 10.4 | 20.0 | 0.00 | 0.02 | 0.00 | 66 | 1013.0 |
| 20260901004405 | 56 | 287 | 6.1 | 20.0 | 0.00 | 0.02 | 0.00 | 67 | 1013.1 |
| 20260901003904 | 56 | 206 | 10.4 | 17.4 | 0.00 | 0.02 | 0.00 | 66 | 1013.2 |
| 20260901003405 | 56 | 259 | 6.1 | 20.0 | 0.00 | 0.02 | 0.00 | 66 | 1013.1 |
| 20260901002905 | 56 | 227 | 7.8 | 17.4 | 0.00 | 0.02 | 0.00 | 65 | 1013.2 |
| 20260901002404 | 56 | 212 | 6.1 | 18.2 | 0.00 | 0.02 | 0.00 | 65 | 1013.3 |
| 20260901001904 | 56 | 202 | 12.2 | 25.2 | 0.00 | 0.02 | 0.00 | 64 | 1013.2 |
| 20260901001405 | 56 | 218 | 10.4 | 21.7 | 0.00 | 0.02 | 0.00 | 63 | 1013.1 |
| 20260901000405 | 56 | 297 | 7.8 | 14.8 | 0.00 | 0.02 | 0.00 | 65 | 1013.1 |
| 20260831235905 | 56 | 294 | 7.0 | 15.6 | 0.00 | 0.02 | 0.00 | 65 | 1013.1 |
| 20260831235405 | 56 | 209 | 6.1 | 12.2 | 0.00 | 0.02 | 0.00 | 66 | 1013.1 |
| 20260831234905 | 56 | 230 | 6.1 | 13.9 | 0.00 | 0.02 | 0.00 | 67 | 1013.1 |
| 20260831233406 | 55 | 225 | 9.6 | 18.2 | 0.00 | 0.02 | 0.00 | 67 | 1013.2 |
| 20260831232905 | 55 | 264 | 7.0 | 15.6 | 0.00 | 0.02 | 0.00 | 66 | 1013.2 |
| 20260831232405 | 56 | 261 | 7.8 | 13.9 | 0.00 | 0.02 | 0.00 | 65 | 1013.2 |
| 20260831231905 | 56 | 215 | 6.1 | 13.0 | 0.00 | 0.02 | 0.00 | 66 | 1013.3 |
| 20260831231404 | 56 | 234 | 6.1 | 14.8 | 0.00 | 0.02 | 0.00 | 66 | 1013.2 |
| 20260831230904 | 56 | 217 | 5.2 | 14.8 | 0.00 | 0.02 | 0.00 | 68 | 1013.2 |
| 20260831230405 | 55 | 235 | 6.1 | 14.8 | 0.00 | 0.02 | 0.00 | 67 | 1013.1 |
| 20260831225905 | 55 | 199 | 7.8 | 17.4 | 0.00 | 0.02 | 0.00 | 67 | 1013.1 |
| 20260831225404 | 55 | 234 | 7.8 | 20.0 | 0.00 | 0.02 | 0.00 | 66 | 1013.0 |
| 20260831224905 | 55 | 317 | 11.3 | 21.7 | 0.00 | 0.02 | 0.00 | 66 | 1012.9 |
| 20260831224405 | 55 | 221 | 6.1 | 15.6 | 0.00 | 0.02 | 0.00 | 66 | 1013.1 |
| 20260831222905 | 54 | 205 | 6.1 | 24.3 | 0.00 | 0.02 | 0.00 | 69 | 1012.9 |
| 20260831222405 | 54 | 208 | 7.8 | 18.2 | 0.00 | 0.02 | 0.00 | 69 | 1012.9 |
| 20260831221904 | 54 | 206 | 9.6 | 18.2 | 0.00 | 0.02 | 0.00 | 68 | 1013.1 |
| 20260831221405 | 54 | 232 | 5.2 | 14.8 | 0.00 | 0.02 | 0.00 | 69 | 1013.1 |
| 20260831220905 | 54 | 214 | 6.1 | 17.4 | 0.00 | 0.02 | 0.00 | 69 | 1013.0 |
| 20260831220404 | 53 | 215 | 7.8 | 18.2 | 0.00 | 0.02 | 0.00 | 69 | 1013.0 |
| 20260831215405 | 53 | 217 | 7.0 | 14.8 | 0.00 | 0.02 | 0.00 | 70 | 1013.0 |
| 20260831214905 | 53 | 199 | 4.3 | 17.4 | 0.00 | 0.02 | 0.00 | 69 | 1013.0 |
| 20260831214404 | 53 | 250 | 6.1 | 12.2 | 0.00 | 0.02 | 0.00 | 69 | 1013.0 |
| 20260831213906 | 53 | 192 | 4.3 | 14.8 | 0.00 | 0.02 | 0.00 | 70 | 1012.9 |
| 20260831213404 | 53 | 274 | 4.3 | 15.6 | 0.00 | 0.02 | 0.00 | 71 | 1013.0 |
| 20260831212905 | 52 | 204 | 8.7 | 15.6 | 0.00 | 0.02 | 0.00 | 70 | 1012.9 |
| 20260831211404 | 52 | 214 | 5.2 | 13.9 | 0.00 | 0.02 | 0.00 | 71 | 1012.7 |
| 20260831210905 | 51 | 198 | 5.2 | 13.9 | 0.00 | 0.02 | 0.00 | 72 | 1012.6 |
| 20260831210405 | 51 | 346 | 6.1 | 17.4 | 0.00 | 0.02 | 0.00 | 72 | 1012.4 |
| 20260831205404 | 51 | 255 | 6.1 | 15.6 | 0.00 | 0.02 | 0.00 | 74 | 1012.5 |
| 20260831204904 | 51 | 216 | 3.5 | 8.7 | 0.00 | 0.02 | 0.00 | 74 | 1012.6 |
| 20260831204404 | 50 | 223 | 4.3 | 11.3 | 0.00 | 0.02 | 0.00 | 74 | 1012.4 |
| 20260831203905 | 50 | 237 | 1.7 | 8.7 | 0.00 | 0.02 | 0.00 | 74 | 1012.3 |
| 20260831203405 | 50 | 219 | 3.5 | 10.4 | 0.00 | 0.02 | 0.00 | 74 | 1012.3 |
| 20260831202404 | 49 | 200 | 2.6 | 10.4 | 0.00 | 0.02 | 0.00 | 76 | 1012.4 |
| 20260831201405 | 48 | 239 | 3.5 | 10.4 | 0.00 | 0.02 | 0.00 | 77 | 1012.1 |
| 20260831195904 | 47 | 202 | 5.2 | 13.0 | 0.00 | 0.02 | 0.00 | 78 | 1011.8 |
| 20260831195405 | 47 | 205 | 4.3 | 15.6 | 0.00 | 0.02 | 0.00 | 78 | 1011.9 |
| 20260831194905 | 47 | 219 | 4.3 | 11.3 | 0.00 | 0.02 | 0.00 | 78 | 1011.8 |
| 20260831194404 | 47 | 271 | 4.3 | 10.4 | 0.00 | 0.02 | 0.00 | 78 | 1011.7 |
| 20260831193905 | 47 | 220 | 6.1 | 13.9 | 0.00 | 0.02 | 0.00 | 77 | 1011.7 |
| 20260831192904 | 47 | 251 | 5.2 | 13.0 | 0.00 | 0.02 | 0.00 | 77 | 1011.6 |
| 20260831192404 | 47 | 212 | 2.6 | 10.4 | 0.00 | 0.02 | 0.00 | 77 | 1011.6 |
| 20260831191905 | 47 | 308 | 3.5 | 10.4 | 0.00 | 0.02 | 0.00 | 77 | 1011.4 |
| 20260831191404 | 46 | 205 | 5.2 | 12.2 | 0.00 | 0.02 | 0.00 | 77 | 1011.3 |
| 20260831185904 | 46 | 289 | 3.5 | 10.4 | 0.00 | 0.02 | 0.00 | 76 | 1010.8 |
| 20260831185405 | 46 | 331 | 2.6 | 6.1 | 0.00 | 0.02 | 0.00 | 76 | 1010.7 |
| 20260831184905 | 47 | 218 | 2.6 | 8.7 | 0.00 | 0.02 | 0.00 | 75 | 1010.5 |
| 20260831184405 | 47 | 250 | 5.2 | 12.2 | 0.00 | 0.02 | 0.00 | 75 | 1010.6 |
| 20260831183905 | 47 | 199 | 7.0 | 15.6 | 0.00 | 0.02 | 0.00 | 75 | 1010.6 |
| 20260831183405 | 47 | 208 | 6.1 | 13.9 | 0.00 | 0.02 | 0.00 | 75 | 1010.6 |
| 20260831182905 | 46 | 217 | 5.2 | 14.8 | 0.00 | 0.02 | 0.00 | 76 | 1010.2 |
| 20260831182404 | 46 | 203 | 7.8 | 17.4 | 0.00 | 0.02 | 0.00 | 76 | 1010.2 |
| 20260831181404 | 46 | 218 | 6.1 | 12.2 | 0.00 | 0.02 | 0.00 | 76 | 1010.1 |
| 20260831180904 | 46 | 212 | 5.2 | 14.8 | 0.00 | 0.02 | 0.00 | 77 | 1010.0 |
| 20260831180405 | 46 | 220 | 5.2 | 13.0 | 0.00 | 0.02 | 0.00 | 77 | 1009.8 |
| 20260831175904 | 46 | 235 | 6.1 | 13.9 | 0.00 | 0.02 | 0.00 | 78 | 1009.7 |
| 20260831175405 | 46 | 210 | 4.3 | 13.0 | 0.00 | 0.02 | 0.00 | 78 | 1009.7 |
| 20260831174904 | 46 | 247 | 4.3 | 11.3 | 0.00 | 0.02 | 0.00 | 78 | 1009.8 |
| 20260831174404 | 46 | 216 | 5.2 | 10.4 | 0.00 | 0.02 | 0.00 | 78 | 1009.9 |
| 20260831173904 | 46 | 227 | 4.3 | 10.4 | 0.00 | 0.02 | 0.00 | 78 | 1009.7 |
| 20260831173405 | 46 | 36 | 3.5 | 10.4 | 0.00 | 0.02 | 0.00 | 78 | 1009.7 |
| 20260831172905 | 46 | 215 | 4.3 | 11.3 | 0.00 | 0.02 | 0.00 | 78 | 1009.7 |
| 20260831172404 | 46 | 263 | 4.3 | 12.2 | 0.00 | 0.02 | 0.00 | 78 | 1009.6 |
| 20260831171904 | 46 | 290 | 4.3 | 10.4 | 0.00 | 0.02 | 0.00 | 78 | 1009.6 |
| 20260831171405 | 46 | 254 | 4.3 | 10.4 | 0.00 | 0.02 | 0.00 | 78 | 1009.5 |
| 20260831170905 | 46 | 232 | 3.5 | 10.4 | 0.00 | 0.02 | 0.00 | 79 | 1009.5 |
| 20260831170404 | 46 | 206 | 5.2 | 10.4 | 0.00 | 0.02 | 0.00 | 79 | 1009.5 |
| 20260831165904 | 46 | 199 | 5.2 | 13.9 | 0.00 | 0.02 | 0.00 | 79 | 1009.4 |
| 20260831165405 | 46 | 227 | 4.3 | 10.4 | 0.00 | 0.02 | 0.00 | 79 | 1009.2 |
| 20260831164904 | 46 | 230 | 5.2 | 13.9 | 0.00 | 0.02 | 0.00 | 79 | 1009.3 |
| 20260831163904 | 46 | 233 | 6.1 | 14.8 | 0.00 | 0.02 | 0.00 | 80 | 1009.2 |
| 20260831162904 | 46 | 201 | 7.0 | 17.4 | 0.00 | 0.02 | 0.00 | 81 | 1009.0 |
| 20260831162405 | 45 | 223 | 4.3 | 14.8 | 0.00 | 0.02 | 0.00 | 81 | 1009.0 |
| 20260831161904 | 45 | 215 | 4.3 | 12.2 | 0.00 | 0.02 | 0.00 | 81 | 1009.1 |
| 20260831160904 | 45 | 264 | 5.2 | 11.3 | 0.00 | 0.02 | 0.00 | 81 | 1009.0 |
| 20260831160405 | 45 | 260 | 4.3 | 12.2 | 0.00 | 0.02 | 0.00 | 82 | 1008.9 |
| 20260831154904 | 45 | 250 | 1.7 | 10.4 | 0.00 | 0.02 | 0.00 | 82 | 1008.8 |
| 20260831154405 | 45 | 215 | 6.1 | 12.2 | 0.00 | 0.02 | 0.00 | 82 | 1008.8 |
| 20260831153905 | 46 | 198 | 6.1 | 17.4 | 0.00 | 0.02 | 0.00 | 82 | 1008.7 |
| 20260831153404 | 46 | 214 | 7.0 | 13.9 | 0.00 | 0.02 | 0.00 | 81 | 1008.7 |
| 20260831152904 | 47 | 219 | 7.0 | 21.7 | 0.00 | 0.02 | 0.00 | 80 | 1008.7 |
| 20260831152404 | 47 | 260 | 9.6 | 25.2 | 0.00 | 0.02 | 0.00 | 77 | 1008.6 |
| 20260831151904 | 47 | 207 | 6.1 | 15.6 | 0.00 | 0.02 | 0.00 | 75 | 1008.8 |
| 20260831151404 | 47 | 238 | 5.2 | 13.9 | 0.00 | 0.02 | 0.00 | 76 | 1008.5 |
| 20260831150905 | 47 | 237 | 7.8 | 15.6 | 0.00 | 0.02 | 0.00 | 76 | 1008.5 |
| 20260831150405 | 47 | 241 | 7.0 | 17.4 | 0.00 | 0.02 | 0.00 | 76 | 1008.4 |
| 20260831145904 | 47 | 206 | 6.1 | 14.8 | 0.00 | 0.02 | 0.00 | 76 | 1008.5 |
| 20260831145405 | 47 | 227 | 5.2 | 17.4 | 0.00 | 0.02 | 0.00 | 76 | 1008.5 |
| 20260831144905 | 47 | 195 | 7.8 | 17.4 | 0.00 | 0.02 | 0.00 | 76 | 1008.5 |
| 20260831143905 | 47 | 186 | 6.1 | 15.6 | 0.00 | 0.02 | 0.00 | 76 | 1008.5 |
| 20260831142904 | 47 | 237 | 7.8 | 15.6 | 0.00 | 0.02 | 0.00 | 74 | 1008.4 |
| 20260831142404 | 47 | 210 | 7.8 | 15.6 | 0.00 | 0.02 | 0.00 | 75 | 1008.3 |
| 20260831141904 | 47 | 336 | 4.3 | 17.4 | 0.00 | 0.02 | 0.00 | 75 | 1008.5 |
| 20260831141405 | 47 | 218 | 5.2 | 13.9 | 0.00 | 0.02 | 0.00 | 75 | 1008.4 |
| 20260831140905 | 47 | 202 | 6.1 | 13.0 | 0.00 | 0.02 | 0.00 | 75 | 1008.6 |
| 20260831140404 | 47 | 158 | 4.3 | 15.6 | 0.00 | 0.02 | 0.00 | 74 | 1008.6 |
| 20260831135905 | 47 | 205 | 7.0 | 17.4 | 0.00 | 0.02 | 0.00 | 74 | 1008.8 |
| 20260831135404 | 47 | 215 | 7.8 | 20.0 | 0.00 | 0.02 | 0.00 | 74 | 1008.7 |
| 20260831134905 | 47 | 206 | 5.2 | 14.8 | 0.00 | 0.02 | 0.00 | 73 | 1008.4 |
| 20260831134404 | 47 | 216 | 7.0 | 19.1 | 0.00 | 0.02 | 0.00 | 73 | 1008.4 |
| 20260831133404 | 47 | 209 | 6.1 | 14.8 | 0.00 | 0.02 | 0.00 | 73 | 1008.1 |
| 20260831132905 | 48 | 220 | 7.0 | 13.9 | 0.00 | 0.02 | 0.00 | 72 | 1008.0 |
| 20260831132404 | 48 | 212 | 7.8 | 22.6 | 0.00 | 0.02 | 0.00 | 72 | 1007.8 |
| 20260831130904 | 48 | 212 | 7.0 | 19.1 | 0.00 | 0.02 | 0.00 | 70 | 1007.8 |
| 20260831130404 | 48 | 188 | 7.0 | 14.8 | 0.00 | 0.02 | 0.00 | 70 | 1007.6 |
| 20260831125904 | 48 | 198 | 8.7 | 20.0 | 0.01 | 0.02 | 0.00 | 69 | 1007.4 |
| 20260831124905 | 49 | 201 | 7.8 | 20.9 | 0.01 | 0.02 | 0.00 | 69 | 1007.2 |
| 20260831124405 | 49 | 214 | 7.8 | 20.0 | 0.01 | 0.02 | 0.00 | 70 | 1006.9 |
| 20260831123404 | 49 | 214 | 9.6 | 19.1 | 0.01 | 0.02 | 0.00 | 70 | 1007.1 |
| 20260831122904 | 49 | 206 | 7.8 | 22.6 | 0.01 | 0.02 | 0.00 | 71 | 1007.1 |
| 20260831122405 | 49 | 300 | 6.1 | 17.4 | 0.01 | 0.02 | 0.00 | 72 | 1007.0 |
| 20260831121905 | 49 | 205 | 7.8 | 15.6 | 0.01 | 0.02 | 0.00 | 72 | 1006.8 |
| 20260831121404 | 49 | 207 | 8.7 | 19.1 | 0.01 | 0.02 | 0.00 | 73 | 1006.8 |
| 20260831120405 | 49 | 201 | 7.8 | 13.9 | 0.01 | 0.02 | 0.00 | 75 | 1006.8 |
| 20260831115904 | 49 | 252 | 6.1 | 17.4 | 0.00 | 0.02 | 0.01 | 74 | 1006.7 |
| 20260831115405 | 49 | 224 | 7.8 | 20.9 | 0.00 | 0.02 | 0.01 | 74 | 1006.7 |
| 20260831114404 | 49 | 201 | 7.0 | 20.0 | 0.00 | 0.02 | 0.01 | 74 | 1006.7 |
| 20260831113904 | 49 | 205 | 6.1 | 17.4 | 0.00 | 0.02 | 0.01 | 74 | 1006.6 |
| 20260831113404 | 49 | 209 | 7.8 | 18.2 | 0.00 | 0.02 | 0.01 | 74 | 1006.4 |
| 20260831112904 | 49 | 236 | 6.1 | 22.6 | 0.00 | 0.02 | 0.01 | 74 | 1006.3 |
| 20260831112404 | 49 | 244 | 6.1 | 17.4 | 0.00 | 0.02 | 0.01 | 74 | 1006.2 |
| 20260831111404 | 49 | 227 | 6.1 | 17.4 | 0.00 | 0.02 | 0.01 | 75 | 1006.2 |
| 20260831110904 | 49 | 182 | 6.1 | 13.9 | 0.00 | 0.02 | 0.01 | 75 | 1006.2 |
| 20260831110409 | 49 | 277 | 8.7 | 19.1 | 0.00 | 0.02 | 0.01 | 75 | 1006.4 |
| 20260831105904 | 49 | 210 | 8.7 | 20.0 | 0.00 | 0.02 | 0.01 | 76 | 1006.1 |
| 20260831105406 | 49 | 201 | 8.7 | 14.8 | 0.00 | 0.02 | 0.01 | 76 | 1006.0 |
| 20260831104405 | 49 | 255 | 8.7 | 17.4 | 0.00 | 0.02 | 0.01 | 76 | 1005.9 |
| 20260831103904 | 49 | 235 | 5.2 | 12.2 | 0.00 | 0.02 | 0.01 | 76 | 1005.7 |
| 20260831103405 | 49 | 211 | 7.8 | 20.0 | 0.00 | 0.02 | 0.01 | 76 | 1005.8 |
| 20260831101404 | 50 | 178 | 5.2 | 17.4 | 0.00 | 0.02 | 0.01 | 75 | 1005.7 |
| 20260831100905 | 50 | 201 | 6.1 | 19.1 | 0.00 | 0.02 | 0.01 | 74 | 1005.7 |
| 20260831100404 | 50 | 193 | 10.4 | 17.4 | 0.00 | 0.02 | 0.01 | 74 | 1005.5 |
| 20260831095904 | 50 | 217 | 10.4 | 20.0 | 0.00 | 0.02 | 0.01 | 73 | 1005.3 |
| 20260831095405 | 50 | 224 | 6.1 | 18.2 | 0.00 | 0.02 | 0.01 | 74 | 1005.2 |
| 20260831094905 | 50 | 215 | 7.8 | 17.4 | 0.00 | 0.02 | 0.01 | 73 | 1005.1 |
| 20260831094404 | 51 | 210 | 11.3 | 30.4 | 0.00 | 0.02 | 0.01 | 73 | 1005.0 |
| 20260831093404 | 51 | 211 | 10.4 | 27.8 | 0.00 | 0.02 | 0.01 | 72 | 1004.8 |
| 20260831092904 | 52 | 193 | 8.7 | 20.0 | 0.00 | 0.02 | 0.01 | 71 | 1004.7 |
| 20260831092408 | 52 | 206 | 14.8 | 30.4 | 0.00 | 0.02 | 0.01 | 72 | 1004.4 |
| 20260831091906 | 52 | 214 | 8.7 | 25.2 | 0.00 | 0.02 | 0.01 | 71 | 1004.3 |
| 20260831091406 | 52 | 255 | 10.4 | 20.0 | 0.00 | 0.02 | 0.01 | 72 | 1004.1 |
| 20260831090905 | 51 | 216 | 11.3 | 22.6 | 0.00 | 0.02 | 0.01 | 72 | 1004.1 |
| 20260831090405 | 51 | 203 | 11.3 | 22.6 | 0.00 | 0.02 | 0.01 | 73 | 1004.0 |
| 20260831085905 | 51 | 304 | 10.4 | 22.6 | 0.00 | 0.02 | 0.01 | 74 | 1004.0 |
| 20260831085405 | 51 | 191 | 8.7 | 21.7 | 0.00 | 0.02 | 0.01 | 74 | 1003.8 |
| 20260831084905 | 51 | 198 | 12.2 | 24.3 | 0.00 | 0.02 | 0.01 | 74 | 1003.8 |
| 20260831084405 | 51 | 223 | 11.3 | 27.8 | 0.00 | 0.02 | 0.01 | 74 | 1003.7 |
| 20260831083404 | 50 | 241 | 10.4 | 22.6 | 0.00 | 0.02 | 0.01 | 78 | 1003.6 |
| 20260831082904 | 50 | 293 | 7.8 | 22.6 | 0.00 | 0.02 | 0.01 | 79 | 1003.7 |
| 20260831081904 | 50 | 218 | 10.4 | 27.8 | 0.01 | 0.02 | 0.01 | 80 | 1003.6 |
| 20260831081408 | 50 | 303 | 10.4 | 26.9 | 0.01 | 0.02 | 0.01 | 79 | 1003.4 |
| 20260831080905 | 51 | 282 | 11.3 | 22.6 | 0.01 | 0.02 | 0.01 | 78 | 1003.6 |
| 20260831080405 | 51 | 244 | 8.7 | 22.6 | 0.01 | 0.02 | 0.01 | 79 | 1003.5 |
| 20260831075904 | 51 | 228 | 11.3 | 28.7 | 0.01 | 0.02 | 0.01 | 79 | 1003.4 |
| 20260831074904 | 50 | 215 | 9.6 | 26.1 | 0.01 | 0.02 | 0.01 | 80 | 1003.2 |
| 20260831074405 | 50 | 215 | 7.8 | 21.7 | 0.01 | 0.02 | 0.01 | 81 | 1003.1 |
| 20260831073405 | 50 | 217 | 9.6 | 20.9 | 0.01 | 0.02 | 0.01 | 82 | 1003.0 |
| 20260831072905 | 50 | 212 | 11.3 | 24.3 | 0.01 | 0.02 | 0.01 | 81 | 1002.9 |
| 20260831072404 | 51 | 221 | 10.4 | 22.6 | 0.01 | 0.02 | 0.01 | 80 | 1002.9 |
| 20260831071905 | 50 | 205 | 11.3 | 21.7 | 0.00 | 0.02 | 0.00 | 80 | 1002.7 |
| 20260831071404 | 50 | 213 | 12.2 | 22.6 | 0.00 | 0.02 | 0.00 | 81 | 1002.7 |
| 20260831070905 | 49 | 235 | 11.3 | 30.4 | 0.00 | 0.02 | 0.00 | 82 | 1002.7 |